This demonstration page uses our WeatherBlox Daily Observations layout. Learn more.

Left ArrowRight Arrow

34.16533, -84.80231

Hourly Observations for July 17, 2016

Temp ( °F °C ) Dew Point ( °F °C ) Humidity (%) Winds ( mph kmh ) Pressure ( in mb ) Visibility ( mi km ) Precip ( " mm )
12:53 am 00:53 Mostly Clear 71 21.7 69 20.6 94 94 Calm 30.14 1021 10 16 0.00 0.00
1:53 am 01:53 Mostly Clear 70 21.1 69 20.6 97 97 Calm 30.13 1020 10 16 0.00 0.00
2:53 am 02:53 Clear 69 20.6 68 20 96 96 Calm 30.11 1020 10 16 0.00 0.00
3:53 am 03:53 Clear 70 21.1 67 19.4 90 90 Calm 30.11 1020 10 16 0.00 0.00
4:53 am 04:53 Clear 69 20.6 68 20 96 96 Calm 30.11 1020 10 16 0.00 0.00
5:53 am 05:53 Clear 70 21.1 68 20 93 93 Calm 30.13 1020 10 16 0.00 0.00
6:53 am 06:53 Sunny 69 20.6 68 20 96 96 Calm 30.14 1021 9 14 0.00 0.00
7:53 am 07:53 Sunny 72 22.2 70 21.1 94 94 Calm 30.16 1022 10 16 0.00 0.00
8:53 am 08:53 Sunny 75 23.9 71 21.7 88 88 SE 5 7 30.17 1022 10 16 0.00 0.00
9:53 am 09:53 Sunny 78 25.6 71 21.7 79 79 SW 3 6 30.18 1022 10 16 0.00 0.00
10:53 am 10:53 Mostly Sunny 80 26.7 72 22.2 76 76 Calm 30.19 1022 10 16 0.00 0.00
11:53 am 11:53 Mostly Sunny 85 29.4 72 22.2 65 65 S 3 6 30.20 1023 10 16 0.00 0.00
12:53 pm 12:53 Mostly Sunny 87 30.6 73 22.8 63 63 SE 6 9 30.19 1022 10 16 0.00 0.00
1:53 pm 13:53 Partly Cloudy 88 31.1 72 22.2 59 59 VRB 3 6 30.17 1022 10 16 0.00 0.00
2:53 pm 14:53 Sunny 88 31.1 70 21.1 55 55 VRB 6 9 30.15 1021 10 16 0.02 0.51
3:53 pm 15:53 Sunny 90 32.2 71 21.7 54 54 S 6 9 30.14 1021 10 16 0.00 0.00
4:53 pm 16:53 Mostly Cloudy 87 30.6 70 21.1 57 57 VRB 6 9 30.14 1021 10 16 0.00 0.00
5:53 pm 17:53 Sunny 86 30 71 21.7 61 61 Calm 30.13 1020 10 16 0.00 0.00
6:53 pm 18:53 Sunny 85 29.4 74 23.3 70 70 Calm 30.14 1021 10 16 0.00 0.00
7:53 pm 19:53 Sunny 83 28.3 75 23.9 77 77 Calm 30.14 1021 10 16 0.00 0.00
8:53 pm 20:53 Partly Cloudy 81 27.2 77 25 88 88 Calm 30.15 1021 10 16 0.00 0.00
9:53 pm 21:53 Clear 79 26.1 74 23.3 85 85 SE 3 6 30.16 1021 10 16 0.00 0.00
10:53 pm 22:53 Mostly Clear 78 25.6 74 23.3 87 87 Calm 30.19 1022 10 16 0.00 0.00
11:53 pm 23:53 Clear 76 24.4 73 22.8 91 91 Calm 30.19 1022 10 16 0.00 0.00

Powered by AerisWeather